Marion, VA

5:55 AM EST on December 14, 2017 (GMT -0500)
Mountain Empire

Weather History for KMKJ - January, 2013

Change the Weather History Date:

Saturday, January 19, 2013

  Actual Average (KBLF) Record (KBLF)
Temperature  
Mean Temperature 28 °F -  
Max Temperature 43 °F 37 °F 60 °F (1996)
Min Temperature 13 °F 22 °F -18 °F (1994)
Degree Days  
Heating Degree Days 37    
Moisture  
Dew Point 22 °F    
Average Humidity 80    
Maximum Humidity 100    
Minimum Humidity 42    
Precipitation  
Precipitation 0.37 in - - ()
Sea Level Pressure  
Sea Level Pressure 30.28 in    
Wind  
Wind Speed 3 mph (WSW)    
Max Wind Speed 16 mph    
Max Gust Speed 18 mph    
Visibility 7 miles    
Events Fog    
Averages and records for this station are not official NWS values.
T = Trace of Precipitation, MM = Missing Value Source: NWS Daily Summary

Daily Weather History Graph

Daily Weather History Graph

Search for Another Location

Airport or City:

Trip Planner

Search our weather history database for the weather conditions in past years. The results will help you decide how hot, cold, wet, or windy it might be!

Date:

Astronomy

Jan. 19, 2013 Rise Set
Actual Time 7:35 AM EST 5:37 PM EST
Civil Twilight 7:07 AM EST 6:05 PM EST
Nautical Twilight 6:36 AM EST 6:36 PM EST
Astronomical Twilight 6:05 AM EST 7:07 PM EST
Moon 12:00 PM EST (1/19) 1:10 AM EST (1/19)
Length of Visible Light 10h 57m
Length of Day
10h 01m
First Quarter, 57% of the Moon is Illuminated
Jan 19
First Quarter
Jan 26
Full
Feb 3
Last Quarter
Feb 10
New
Feb 17
First Quarter

Hourly Weather History & Observations

Time (EST) Temp. Windchill Dew Point Humidity Pressure Visibility Wind Dir Wind Speed Gust Speed Precip Events Conditions
12:15 AM 18.1 °F - 17.1 °F 96% 30.41 in 0.2 mi Calm Calm - N/A Fog Light Freezing Fog
12:35 AM 18.0 °F - 17.2 °F 97% 30.41 in 1.0 mi Calm Calm - N/A   Mostly Cloudy
12:55 AM 17.6 °F - 17.2 °F 98% 30.40 in 5.0 mi Calm Calm - N/A   Clear
1:15 AM 16.7 °F - 15.4 °F 95% 30.40 in 5.0 mi Calm Calm - N/A   Clear
1:35 AM 17.1 °F - 15.8 °F 95% 30.40 in 4.0 mi Calm Calm - N/A   Mostly Cloudy
1:55 AM 16.9 °F - 16.5 °F 98% 30.40 in 7.0 mi Calm Calm - N/A   Scattered Clouds
2:15 AM 15.6 °F - 14.4 °F 95% 30.40 in 1.0 mi Calm Calm - N/A   Overcast
2:35 AM 15.4 °F - 14.4 °F 95% 30.40 in 5.0 mi Calm Calm - N/A   Overcast
2:55 AM 15.8 °F - 14.4 °F 94% 30.40 in 0.8 mi Calm Calm - N/A   Overcast
3:15 AM 15.4 °F - 14.2 °F 95% 30.39 in 0.5 mi Calm Calm - N/A Fog Light Freezing Fog
3:35 AM 15.6 °F - 14.5 °F 95% 30.39 in 0.8 mi Calm Calm - N/A   Mostly Cloudy
3:55 AM 15.6 °F - 15.1 °F 98% 30.39 in 1.0 mi Calm Calm - N/A   Overcast
4:15 AM 14.9 °F - 13.8 °F 95% 30.38 in 4.0 mi Calm Calm - N/A   Overcast
4:35 AM 14.4 °F - 13.1 °F 95% 30.38 in 0.8 mi Calm Calm - N/A   Overcast
4:55 AM 14.4 °F - 13.1 °F 95% 30.37 in 0.2 mi Calm Calm - N/A Fog Light Freezing Fog
5:15 AM 14.2 °F - 13.3 °F 96% 30.37 in 0.2 mi Calm Calm - N/A Fog Light Freezing Fog
5:35 AM 14.7 °F - 13.6 °F 95% 30.37 in 0.2 mi Calm Calm - N/A Fog Light Freezing Fog
5:55 AM 14.4 °F - 13.3 °F 95% 30.38 in 0.2 mi Calm Calm - N/A Fog Light Freezing Fog
6:15 AM 14.4 °F - 13.5 °F 96% 30.38 in 0.2 mi Calm Calm - N/A Fog Light Freezing Fog
6:35 AM 13.8 °F - 12.9 °F 96% 30.37 in 0.2 mi Calm Calm - N/A Fog Light Freezing Fog
6:55 AM 13.6 °F - 12.6 °F 95% 30.37 in 0.2 mi Calm Calm - N/A Fog Light Freezing Fog
8:15 AM 13.6 °F - 12.0 °F 93% 30.38 in 5.0 mi Calm Calm - N/A   Clear
8:55 AM 17.2 °F - 17.2 °F 100% 30.38 in 7.0 mi Calm Calm - N/A   Clear
9:15 AM 18.7 °F - 18.3 °F 98% 30.38 in 7.0 mi Calm Calm - N/A   Clear
9:35 AM 21.6 °F - 21.6 °F 100% 30.39 in 7.0 mi Calm Calm - N/A   Clear
10:35 AM 27.1 °F - 27.1 °F 100% 30.38 in 10.0 mi Calm Calm - 0.02 in   Clear
10:55 AM 29.5 °F - 29.5 °F 100% 30.37 in 10.0 mi Calm Calm - 0.04 in   Clear
11:15 AM 30.7 °F - 30.7 °F 100% 30.36 in 10.0 mi Calm Calm - 0.02 in   Clear
11:35 AM 32.0 °F - 32.0 °F 100% 30.34 in 10.0 mi Calm Calm - 0.06 in   Clear
11:55 AM 34.2 °F 26.8 °F 34.2 °F 100% 30.32 in 10.0 mi WSW 9.2 mph - 0.08 in   Clear
12:15 PM 36.3 °F 29.5 °F 32.0 °F 84% 30.30 in 10.0 mi WSW 9.2 mph - 0.01 in   Clear
12:35 PM 38.7 °F 32.9 °F 29.3 °F 69% 30.28 in 10.0 mi WSW 8.1 mph - 0.05 in   Clear
12:55 PM 43.2 °F 37.4 °F 25.5 °F 50% 30.27 in 10.0 mi SW 10.4 mph - 0.07 in   Clear
1:15 PM 43.3 °F 37.2 °F 26.8 °F 52% 30.27 in 10.0 mi WSW 11.5 mph 16.1 mph 0.03 in   Clear
1:35 PM 42.8 °F 37.0 °F 27.5 °F 55% 30.26 in 10.0 mi WSW 10.4 mph - 0.06 in   Clear
1:55 PM 42.8 °F 36.2 °F 26.4 °F 52% 30.25 in 10.0 mi WSW 12.7 mph - 0.08 in   Clear
2:55 PM 42.8 °F 35.1 °F 22.8 °F 45% 30.22 in 10.0 mi WSW 16.1 mph - 0.06 in   Clear
3:15 PM 43.5 °F 36.4 °F 21.7 °F 42% 30.21 in 10.0 mi WSW 15.0 mph 18.4 mph 0.01 in   Clear
3:35 PM 43.3 °F 36.5 °F 22.3 °F 43% 30.21 in 10.0 mi WSW 13.8 mph - 0.01 in   Clear
3:55 PM 42.3 °F 35.1 °F 23.4 °F 47% 30.20 in 10.0 mi West 13.8 mph - 0.02 in   Clear
4:15 PM 42.3 °F 35.9 °F 23.7 °F 48% 30.20 in 10.0 mi West 11.5 mph - 0.01 in   Clear
4:35 PM 42.8 °F 38.0 °F 23.0 °F 46% 30.20 in 10.0 mi WSW 8.1 mph - 0.01 in   Clear
4:55 PM 42.3 °F 36.8 °F 23.5 °F 48% 30.20 in 10.0 mi West 9.2 mph - 0.01 in   Clear
5:15 PM 41.4 °F 35.2 °F 23.4 °F 49% 30.20 in 10.0 mi West 10.4 mph - 0.01 in   Clear
5:35 PM 40.5 °F 35.1 °F 24.8 °F 54% 30.19 in 10.0 mi West 8.1 mph - 0.01 in   Clear
5:55 PM 39.0 °F 34.0 °F 26.2 °F 60% 30.18 in 10.0 mi West 6.9 mph - 0.01 in   Clear
6:15 PM 38.7 °F 32.9 °F 26.2 °F 61% 30.19 in 10.0 mi WSW 8.1 mph - N/A   Clear
6:35 PM 37.4 °F 32.8 °F 26.1 °F 64% 30.19 in 10.0 mi SW 5.8 mph - N/A   Clear
6:55 PM 37.0 °F 33.3 °F 25.7 °F 64% 30.19 in 10.0 mi SW 4.6 mph - N/A   Clear
7:15 PM 35.6 °F 31.7 °F 25.9 °F 68% 30.18 in 10.0 mi WSW 4.6 mph - N/A   Clear
7:35 PM 33.3 °F 28.9 °F 26.8 °F 77% 30.19 in 10.0 mi WNW 4.6 mph - N/A   Clear
7:55 PM 34.2 °F 28.2 °F 27.5 °F 77% 30.19 in 10.0 mi West 6.9 mph - N/A   Clear
8:15 PM 34.0 °F 28.0 °F 26.6 °F 74% 30.18 in 10.0 mi WSW 6.9 mph - N/A   Clear
8:35 PM 33.1 °F 27.7 °F 27.1 °F 79% 30.18 in 10.0 mi West 5.8 mph - N/A   Clear
8:55 PM 32.0 °F 25.6 °F 27.5 °F 83% 30.17 in 10.0 mi West 6.9 mph - N/A   Clear
9:15 PM 32.7 °F 29.6 °F 27.3 °F 81% 30.16 in 10.0 mi West 3.5 mph - N/A   Clear
9:35 PM 32.0 °F 25.6 °F 26.6 °F 80% 30.16 in 10.0 mi West 6.9 mph - N/A   Clear
9:55 PM 32.0 °F 25.6 °F 26.8 °F 81% 30.16 in 10.0 mi West 6.9 mph - N/A   Clear
10:15 PM 32.5 °F 24.8 °F 26.4 °F 78% 30.15 in 10.0 mi WSW 9.2 mph - N/A   Clear
10:35 PM 32.0 °F 24.2 °F 26.6 °F 80% 30.14 in 10.0 mi West 9.2 mph - N/A   Clear
10:55 PM 33.8 °F 25.3 °F 26.8 °F 75% 30.14 in 10.0 mi West 11.5 mph - N/A   Clear
11:15 PM 33.3 °F 25.7 °F 27.1 °F 78% 30.13 in 10.0 mi WSW 9.2 mph - N/A   Clear
11:35 PM 33.8 °F 26.4 °F 27.3 °F 77% 30.12 in 10.0 mi WSW 9.2 mph - N/A   Clear
11:55 PM 33.1 °F 25.5 °F 27.0 °F 78% 30.12 in 10.0 mi WSW 9.2 mph - N/A   Clear